RH
89 92 93 93 95 95 94 94 94 92 91 90 90 90 90 88 87 85 84 83 80 72 70 70 68 64 63 63 65 67 69 73 79 78 77 73 70 70 72 82 79 73 80
89 90 94 94 94 94 93 93 92 91 90 90 90 90 89 88 87 85 83 80 75 69 68 64 60 60 60 62 67 69 72 79 81 80 79 76 78 74 72 80 82 76 78
88 89 88 94 93 92 91 90 90 89 89 89 89 88 87 86 84 80 80 78 73 66 60 60 63 64 66 69 72 71 74 79 79 76 78 73 68 74 72 79 76 76 73
82 85 87 93 92 92 91 90 89 87 88 88 87 87 87 82 79 76 76 76 71 60 60 63 65 67 69 72 73 74 76 75 79 78 71 69 63 71 70 71 70 67 67
77 83 89 94 93 92 92 91 90 89 89 88 88 86 84 80 76 74 78 75 69 61 64 65 67 70 73 79 80 78 77 78 78 73 82 76 74 69 73 76 76 74 77
86 88 93 93 93 92 92 91 90 91 91 89 87 85 80 77 75 75 79 76 66 64 66 68 69 72 80 80 79 78 78 78 68 71 66 71 67 65 66 75 83 82 82
90 90 87 91 93 92 90 90 92 92 90 87 85 85 82 77 75 76 81 78 73 70 69 71 73 75 79 77 75 75 77 77 53 62 74 82 73 64 62 66 74 80 80
92 89 79 92 92 91 91 93 94 92 90 88 87 86 84 82 82 82 82 80 78 76 75 75 78 77 76 74 74 75 75 73 56 58 74 86 75 65 63 67 76 78 78
93 94 94 90 91 92 93 94 94 92 90 89 89 87 85 85 84 83 83 81 80 79 78 78 76 76 75 74 75 79 81 77 62 54 56 85 76 66 65 67 69 72 77
93 95 91 92 89 92 91 94 92 90 89 87 85 85 86 84 82 82 81 80 79 78 77 77 78 77 76 77 78 82 84 73 57 66 79 84 71 61 62 65 67 70 72
89 94 89 88 88 92 93 88 89 87 86 84 83 84 86 82 80 79 80 80 79 79 77 76 76 77 77 76 83 85 82 61 53 69 82 75 67 54 56 60 64 69 73
93 93 95 85 86 81 72 87 89 81 84 80 79 81 77 80 81 71 80 80 80 80 79 77 79 80 77 69 68 72 65 57 58 67 79 72 63 50 54 60 65 69 68
84 82 85 78 79 66 76 85 86 83 82 79 75 76 82 84 86 92 94 94 89 84 81 75 71 69 60 67 66 65 60 61 66 61 70 73 60 52 52 58 62 65 67
85 70 65 68 59 66 73 76 75 72 82 90 92 86 93 95 94 94 94 93 88 74 76 75 78 68 67 61 60 60 61 61 61 62 66 68 67 54 55 59 61 62 63
72 63 65 66 65 67 79 87 85 91 93 94 94 93 94 95 93 94 93 83 84 83 78 75 74 63 65 62 58 57 57 57 58 58 64 74 74 63 60 61 59 57 56
59 65 68 71 70 80 78 78 78 81 85 88 95 95 94 96 95 94 94 92 90 82 70 71 68 72 69 64 57 54 51 52 44 45 48 59 77 72 63 56 52 49 51
56 59 67 72 81 72 75 76 78 80 85 93 91 92 89 87 86 84 87 80 75 70 70 72 69 67 65 55 55 51 53 49 47 46 46 51 86 77 67 52 46 45 49
53 57 59 61 71 76 76 88 88 92 95 95 95 92 85 81 80 82 76 76 74 74 76 75 73 68 65 63 59 54 58 52 49 50 44 47 61 71 71 62 50 47 46
52 58 83 84 91 91 95 97 98 97 97 95 92 86 78 74 73 78 78 72 75 77 75 68 72 70 69 65 49 52 59 58 58 44 45 46 55 69 68 66 63 59 47
62 78 85 92 94 96 96 98 98 98 96 93 84 72 71 71 69 75 74 69 70 71 73 74 68 67 68 69 46 50 56 58 58 59 56 43 44 41 53 47 53 53 57
86 91 92 90 93 93 97 98 98 96 95 84 76 70 67 63 65 72 74 72 71 67 68 66 68 66 70 74 67 62 62 60 48 56 60 60 54 42 40 42 44 48 50
93 95 92 86 92 91 87 92 83 84 78 72 70 69 66 64 65 65 67 67 65 64 69 68 70 73 72 70 68 78 74 60 63 53 64 60 66 56 46 39 46 49 54
97 95 88 88 88 84 86 84 80 75 74 72 72 71 66 64 61 61 62 65 64 66 68 68 68 69 73 73 69 70 80 82 78 67 61 71 70 69 66 56 46 48 48
96 93 84 84 84 84 83 72 72 66 63 69 75 73 66 62 58 56 54 56 60 65 64 71 62 72 76 78 76 60 72 80 88 88 78 70 72 62 69 65 64 53 49
89 93 85 84 81 75 57 64 64 70 70 68 64 65 66 60 58 55 54 56 62 70 73 75 77 71 76 77 79 81 80 83 84 93 89 88 78 70 66 67 64 62 56
88 90 90 75 56 59 63 67 69 72 69 66 62 57 60 54 58 60 56 64 65 64 66 70 74 76 81 84 84 86 87 87 88 92 95 92 88 78 69 62 61 64 60
Wind_Speed
6 11 14 18 16 16 15 15 16 17 19 19 19 19 18 17 17 16 16 16 16 16 16 16 16 15 14 13 12 11 12 14 12 10 12 15 17 18 18 16 15 13 16
13 9 14 18 17 16 16 17 17 18 19 20 19 19 17 16 16 15 16 15 15 15 16 16 16 15 13 12 12 12 13 11 10 7 10 15 15 16 17 16 14 13 15
14 11 14 17 17 16 17 17 18 19 20 20 18 18 18 17 16 16 15 14 15 16 16 16 16 14 14 14 13 13 12 9 5 4 6 5 10 17 17 16 16 14 15
17 12 12 18 18 17 17 16 18 19 19 19 17 17 17 17 16 17 15 14 14 16 16 16 16 15 14 13 14 14 14 15 4 7 5 6 10 16 16 16 16 16 14
16 16 12 17 17 17 17 17 16 18 18 17 17 17 18 17 16 16 15 14 14 15 15 15 15 15 13 13 13 13 14 18 18 15 7 5 5 13 16 16 13 13 14
14 15 14 16 17 18 18 16 17 17 18 17 16 16 18 17 16 17 15 14 14 14 14 14 13 12 11 10 11 13 15 15 10 8 6 7 8 14 15 14 13 12 11
16 9 14 16 19 19 17 16 16 17 17 16 15 16 16 17 16 15 13 13 12 13 12 12 11 8 9 9 11 12 12 14 8 5 7 6 7 15 14 12 11 11 11
16 7 11 15 16 17 16 15 15 16 16 15 15 15 15 15 14 14 12 11 10 10 9 8 8 6 6 8 10 11 13 11 5 5 5 4 9 14 12 11 9 9 8
14 13 9 8 12 16 15 13 14 15 14 13 14 13 13 13 12 11 11 10 9 7 6 5 5 4 5 8 10 10 12 13 6 4 6 3 10 13 13 12 12 12 11
9 13 12 8 9 10 9 13 12 13 12 12 12 12 12 12 12 11 10 10 8 8 5 3 1 3 4 8 10 9 11 10 6 6 3 3 9 12 12 12 12 13 13
9 7 11 10 9 10 8 9 11 12 11 11 9 10 8 4 6 8 7 9 8 6 5 4 5 4 6 7 9 8 9 4 7 4 2 6 7 10 10 11 12 12 13
10 12 7 9 10 10 8 7 6 7 4 5 5 6 4 5 5 5 5 8 5 4 3 5 4 4 4 1 3 4 3 5 5 3 1 3 6 9 11 11 12 13 13
13 6 9 10 10 9 8 5 3 3 3 4 5 4 3 3 3 3 2 2 1 4 3 2 3 3 5 5 5 4 5 5 3 3 2 2 7 8 9 11 12 12 13
9 8 8 8 11 8 6 5 4 4 3 3 4 6 4 3 4 3 3 4 3 4 5 4 3 5 6 6 6 6 5 3 2 3 4 5 3 7 9 10 11 12 13
10 8 8 7 7 6 8 5 6 5 6 5 5 6 4 4 4 4 5 5 4 4 4 5 5 5 6 7 7 7 6 6 7 4 3 3 1 7 9 11 11 12 12
12 8 6 7 6 10 9 10 7 5 5 5 5 4 6 5 5 6 5 4 4 4 4 5 5 5 5 5 6 6 6 5 6 6 4 4 4 7 11 11 10 11 11
12 11 9 8 8 12 10 8 6 4 5 5 4 6 6 6 6 6 5 4 4 4 6 6 6 5 5 6 6 6 5 6 6 7 7 4 4 8 10 10 9 11 10
17 15 11 8 9 9 10 5 5 5 4 4 4 4 6 7 7 5 5 4 3 4 4 4 4 4 5 4 4 4 4 5 7 7 7 6 1 3 6 8 9 12 10
17 15 12 12 9 10 9 7 6 6 4 3 4 4 6 5 6 5 5 3 4 4 4 3 4 3 3 4 5 4 5 5 5 6 8 10 9 3 2 5 7 10 10
15 16 15 11 10 7 7 6 4 4 3 3 3 4 6 4 6 5 4 4 5 4 4 4 4 4 2 3 3 4 4 5 5 4 6 7 7 9 6 7 5 3 5
15 15 14 15 9 8 4 4 3 3 3 2 3 5 5 5 5 6 5 5 4 5 4 3 2 3 3 3 2 2 3 3 6 4 5 4 7 6 8 7 5 5 7
14 13 13 12 10 7 5 3 4 4 3 4 4 5 6 6 7 6 6 4 5 4 5 3 3 1 1 4 2 1 4 4 4 5 4 5 6 4 6 8 6 5 4
13 12 12 12 12 9 8 4 3 4 4 3 3 3 4 7 6 7 6 5 4 3 1 2 2 3 1 2 3 1 4 2 3 2 4 2 4 3 4 5 5 5 4
10 9 12 13 12 8 7 8 9 5 6 4 4 4 4 6 6 6 6 5 4 2 0 2 2 2 2 0 2 1 2 3 2 4 2 3 4 5 4 4 4 5 5
12 9 10 10 8 7 9 9 7 4 4 5 6 6 4 2 4 5 4 2 2 2 3 3 2 1 1 2 2 1 2 1 1 2 5 3 3 3 5 4 4 4 4
7 7 7 7 7 8 8 7 8 9 7 6 4 4 3 2 4 6 7 5 4 3 2 2 2 3 4 3 3 2 3 2 3 2 3 2 4 4 3 4 5 5 5
Wind_Direction
111 122 115 113 112 109 112 109 105 102 99 96 92 89 85 82 81 81 80 77 76 74 73 69 65 57 48 40 32 20 26 37 34 32 60 58 59 58 60 64 67 60 57
116 113 110 111 113 114 116 112 109 106 102 97 95 92 90 86 81 79 81 80 81 80 76 70 65 59 50 36 23 17 23 34 40 44 60 57 56 57 57 51 53 55 58
114 128 118 116 113 119 115 114 112 105 100 99 96 97 95 89 87 84 82 79 79 78 74 70 65 54 40 28 15 13 11 29 43 73 65 76 72 68 58 55 46 50 50
134 118 125 121 121 120 113 110 107 105 102 99 98 96 95 92 90 88 83 80 80 77 72 66 59 50 37 22 10 6 2 356 12 149 106 67 70 67 60 53 48 43 42
127 126 137 119 116 112 107 106 107 104 100 99 99 100 95 95 93 91 84 79 75 74 73 67 58 47 33 16 5 358 15 15 69 83 90 82 82 61 54 48 45 41 37
120 127 121 113 113 105 109 112 105 101 98 98 100 100 100 98 95 90 84 82 84 84 79 71 61 48 30 7 1 2 0 34 58 84 89 78 72 60 51 44 38 35 36
115 122 127 121 113 111 112 107 102 98 99 100 100 101 102 101 98 95 91 91 92 87 82 78 69 50 32 3 359 1 1 43 57 48 78 64 78 72 58 52 44 29 22
97 85 109 102 106 110 109 103 101 100 102 107 107 106 108 108 105 104 105 98 93 89 82 75 67 49 27 2 352 356 358 18 54 87 84 83 80 78 65 45 43 40 27
125 132 104 118 112 104 101 103 103 104 109 111 112 117 117 115 117 116 111 113 111 102 99 83 64 20 359 353 341 353 356 341 67 110 81 61 70 66 61 50 31 20 17
123 114 157 125 116 105 107 108 111 113 115 120 129 131 132 128 132 135 138 141 139 148 140 115 285 289 352 342 325 345 355 344 72 103 66 61 69 63 55 49 36 19 13
103 123 147 137 126 114 116 119 117 121 133 135 139 143 119 130 151 165 160 159 179 168 173 186 246 323 342 323 301 342 356 343 44 84 76 70 58 50 50 47 41 31 21
143 181 170 139 136 131 131 137 134 143 149 140 162 157 163 164 190 161 157 189 191 207 237 252 284 315 321 336 30 16 22 7 36 120 143 88 43 36 41 47 46 39 29
179 186 152 155 155 140 146 148 134 149 166 176 163 172 169 114 108 66 48 354 334 242 296 308 324 8 13 29 28 20 13 19 6 354 136 29 49 37 42 48 50 48 41
163 156 123 121 144 140 153 148 155 157 124 91 98 82 88 71 87 84 81 45 19 46 73 77 45 45 36 30 23 4 9 352 331 332 348 13 42 39 48 62 55 52 44
128 123 120 131 135 113 99 102 95 80 82 75 60 70 79 86 75 73 71 74 66 40 52 42 36 29 24 19 19 19 2 352 3 11 1 305 32 82 79 73 62 52 43
130 131 137 141 127 109 108 103 103 96 102 91 72 71 70 68 76 78 72 68 59 61 49 50 33 34 30 19 8 2 355 15 8 356 338 346 57 87 91 85 71 53 49
141 150 164 162 121 122 108 107 112 103 87 86 95 88 85 82 91 94 83 65 61 62 57 54 37 32 31 14 5 348 5 357 351 346 349 343 155 146 126 115 73 48 75
151 155 166 130 120 110 119 103 94 84 87 90 99 93 89 89 98 96 91 77 33 45 79 75 51 35 23 14 340 346 353 350 348 353 339 324 229 156 159 135 82 74 75
153 148 119 118 121 118 105 92 87 87 91 122 111 112 108 114 120 109 110 88 61 101 74 74 49 78 34 2 347 2 349 350 346 7 9 12 9 83 199 178 85 97 65
141 132 130 121 116 111 104 103 112 110 134 155 147 135 143 135 102 106 98 93 76 73 51 58 77 30 46 19 10 358 325 327 353 20 354 23 34 31 8 0 28 72 18
128 130 136 131 135 130 127 134 134 150 160 159 173 148 129 97 83 98 85 75 60 69 55 65 76 64 358 351 57 317 300 19 338 5 6 26 14 4 23 24 20 36 26
135 135 136 137 150 159 161 176 148 143 165 158 161 129 117 102 85 83 77 73 62 55 51 46 75 34 10 22 5 359 340 328 23 349 5 21 11 15 9 9 19 41 33
134 139 140 155 172 186 188 159 108 103 81 104 124 124 123 112 109 110 110 107 104 109 63 11 2 108 256 315 55 144 345 277 313 332 317 0 16 359 345 354 350 9 18
143 157 160 178 184 189 195 149 145 154 156 183 156 143 141 138 136 132 137 144 150 146 142 261 199 212 154 249 349 307 204 184 285 313 339 313 339 339 334 330 346 327 321
164 168 166 181 174 185 173 144 146 146 139 117 126 134 149 165 170 178 154 90 70 35 10 1 346 122 184 170 195 245 254 273 240 228 304 300 337 316 312 326 301 307 306
159 158 179 161 144 120 104 97 118 116 108 99 114 110 95 101 74 70 80 79 76 49 8 330 302 263 224 201 212 226 188 215 262 273 300 288 249 273 284 307 317 310 311